QPF
0.00 0.00 0.00 0.00 0.00 0.00 0.00 0.00 0.00 0.00 0.00 0.00 0.00 0.00 0.00 0.00 0.00 0.00 0.00 0.00 0.00 0.00 0.00 0.00 0.00 0.00 0.00 0.00 0.00 0.00 0.00 0.00 0.00 0.00 0.00 0.00 0.00 0.00 0.00 0.00 0.00 0.00 0.00
0.00 0.00 0.00 0.00 0.00 0.00 0.00 0.00 0.00 0.00 0.00 0.00 0.00 0.00 0.00 0.00 0.00 0.00 0.00 0.00 0.00 0.00 0.00 0.00 0.00 0.00 0.00 0.00 0.00 0.00 0.00 0.00 0.00 0.00 0.00 0.00 0.00 0.00 0.00 0.00 0.00 0.00 0.00
0.00 0.00 0.00 0.00 0.00 0.00 0.00 0.00 0.00 0.00 0.00 0.00 0.00 0.00 0.00 0.00 0.00 0.00 0.00 0.00 0.00 0.00 0.00 0.00 0.00 0.00 0.00 0.00 0.00 0.00 0.00 0.00 0.00 0.00 0.00 0.00 0.00 0.00 0.00 0.00 0.00 0.00 0.00
0.00 0.00 0.00 0.00 0.00 0.00 0.00 0.00 0.00 0.00 0.00 0.00 0.00 0.00 0.00 0.00 0.00 0.00 0.00 0.00 0.00 0.00 0.00 0.00 0.00 0.00 0.00 0.00 0.00 0.00 0.00 0.00 0.00 0.00 0.00 0.00 0.00 0.00 0.00 0.00 0.00 0.00 0.00
0.01 0.01 0.00 0.00 0.00 0.00 0.00 0.00 0.00 0.00 0.00 0.00 0.00 0.00 0.00 0.00 0.00 0.00 0.00 0.00 0.00 0.00 0.00 0.00 0.00 0.00 0.00 0.00 0.00 0.00 0.00 0.00 0.00 0.00 0.00 0.00 0.00 0.00 0.00 0.00 0.00 0.00 0.00
0.01 0.01 0.01 0.01 0.00 0.00 0.00 0.00 0.00 0.00 0.00 0.00 0.00 0.00 0.00 0.00 0.00 0.00 0.00 0.00 0.00 0.00 0.00 0.00 0.00 0.00 0.00 0.00 0.00 0.00 0.00 0.00 0.00 0.00 0.00 0.00 0.00 0.00 0.00 0.00 0.00 0.00 0.01
0.01 0.01 0.01 0.01 0.00 0.00 0.00 0.00 0.00 0.00 0.00 0.00 0.00 0.00 0.00 0.00 0.00 0.00 0.00 0.00 0.00 0.00 0.00 0.00 0.00 0.00 0.00 0.00 0.00 0.00 0.00 0.00 0.00 0.00 0.00 0.00 0.00 0.00 0.00 0.00 0.01 0.01 0.01
0.02 0.01 0.01 0.01 0.00 0.00 0.00 0.00 0.00 0.00 0.00 0.00 0.00 0.00 0.00 0.00 0.00 0.00 0.00 0.00 0.00 0.00 0.00 0.00 0.00 0.00 0.00 0.00 0.00 0.00 0.00 0.00 0.00 0.00 0.00 0.00 0.00 0.00 0.00 0.01 0.01 0.01 0.01
0.04 0.03 0.02 0.01 0.01 0.01 0.01 0.01 0.01 0.00 0.00 0.00 0.00 0.00 0.00 0.00 0.00 0.00 0.00 0.00 0.00 0.00 0.00 0.00 0.00 0.00 0.00 0.00 0.00 0.00 0.00 0.00 0.00 0.00 0.00 0.00 0.00 0.01 0.01 0.01 0.02 0.02 0.02
0.06 0.05 0.03 0.02 0.03 0.03 0.02 0.01 0.01 0.01 0.01 0.00 0.00 0.00 0.00 0.00 0.00 0.00 0.00 0.00 0.00 0.00 0.00 0.00 0.00 0.00 0.00 0.00 0.00 0.00 0.00 0.00 0.00 0.00 0.00 0.00 0.00 0.01 0.01 0.02 0.03 0.03 0.03
0.07 0.06 0.05 0.04 0.04 0.04 0.04 0.03 0.03 0.03 0.02 0.02 0.02 0.01 0.01 0.00 0.00 0.00 0.00 0.00 0.00 0.00 0.00 0.00 0.00 0.00 0.00 0.00 0.00 0.00 0.00 0.00 0.00 0.00 0.00 0.00 0.01 0.01 0.02 0.03 0.03 0.03 0.03
0.07 0.07 0.06 0.06 0.07 0.06 0.05 0.04 0.03 0.03 0.02 0.02 0.02 0.01 0.01 0.00 0.00 0.00 0.00 0.00 0.00 0.00 0.00 0.00 0.00 0.00 0.00 0.00 0.00 0.00 0.00 0.00 0.00 0.00 0.00 0.00 0.01 0.02 0.02 0.03 0.03 0.03 0.03
0.06 0.07 0.07 0.07 0.08 0.07 0.05 0.04 0.02 0.02 0.01 0.00 0.00 0.00 0.00 0.00 0.00 0.00 0.00 0.00 0.00 0.00 0.00 0.00 0.00 0.00 0.00 0.00 0.00 0.00 0.00 0.00 0.00 0.00 0.00 0.01 0.01 0.01 0.02 0.02 0.03 0.03 0.03
0.10 0.10 0.09 0.09 0.07 0.05 0.04 0.03 0.02 0.01 0.01 0.01 0.01 0.00 0.00 0.00 0.00 0.00 0.00 0.00 0.00 0.00 0.00 0.00 0.00 0.00 0.00 0.00 0.00 0.00 0.00 0.00 0.00 0.00 0.00 0.01 0.01 0.01 0.01 0.02 0.02 0.03 0.03
0.08 0.08 0.09 0.08 0.07 0.05 0.05 0.04 0.03 0.03 0.02 0.02 0.01 0.00 0.00 0.00 0.00 0.00 0.00 0.00 0.00 0.00 0.00 0.00 0.00 0.00 0.00 0.00 0.00 0.00 0.00 0.00 0.00 0.00 0.00 0.00 0.00 0.01 0.01 0.01 0.02 0.02 0.03
0.05 0.07 0.07 0.06 0.06 0.05 0.04 0.03 0.02 0.02 0.01 0.00 0.00 0.00 0.00 0.00 0.00 0.00 0.00 0.00 0.00 0.00 0.00 0.00 0.00 0.00 0.00 0.00 0.00 0.00 0.00 0.00 0.00 0.00 0.00 0.00 0.01 0.01 0.01 0.01 0.01 0.02 0.02
0.04 0.05 0.06 0.06 0.05 0.04 0.03 0.02 0.01 0.01 0.00 0.00 0.00 0.00 0.00 0.00 0.00 0.00 0.00 0.00 0.00 0.00 0.00 0.00 0.00 0.00 0.00 0.00 0.00 0.00 0.00 0.00 0.00 0.00 0.00 0.00 0.00 0.01 0.01 0.01 0.01 0.01 0.02
0.03 0.04 0.04 0.04 0.03 0.02 0.02 0.01 0.01 0.00 0.00 0.00 0.00 0.00 0.00 0.00 0.00 0.00 0.00 0.00 0.00 0.00 0.00 0.00 0.00 0.00 0.00 0.00 0.00 0.00 0.00 0.00 0.00 0.00 0.00 0.00 0.00 0.00 0.00 0.01 0.01 0.01 0.01
0.03 0.03 0.03 0.03 0.02 0.02 0.01 0.01 0.01 0.01 0.01 0.00 0.00 0.00 0.00 0.00 0.00 0.00 0.00 0.00 0.00 0.00 0.00 0.00 0.00 0.00 0.00 0.00 0.00 0.00 0.00 0.00 0.00 0.00 0.00 0.00 0.00 0.00 0.00 0.00 0.00 0.00 0.01
0.03 0.02 0.02 0.02 0.01 0.01 0.01 0.01 0.01 0.01 0.00 0.00 0.00 0.00 0.00 0.00 0.00 0.00 0.00 0.00 0.00 0.00 0.00 0.00 0.00 0.00 0.00 0.00 0.00 0.00 0.00 0.00 0.00 0.00 0.00 0.00 0.00 0.00 0.00 0.00 0.00 0.00 0.00
0.02 0.02 0.01 0.01 0.01 0.02 0.02 0.01 0.01 0.01 0.01 0.00 0.00 0.00 0.00 0.00 0.00 0.00 0.00 0.00 0.00 0.00 0.00 0.00 0.00 0.00 0.00 0.00 0.00 0.00 0.00 0.00 0.00 0.00 0.00 0.00 0.00 0.00 0.00 0.00 0.00 0.00 0.00
0.02 0.02 0.02 0.02 0.02 0.02 0.02 0.02 0.01 0.01 0.01 0.00 0.00 0.00 0.00 0.00 0.00 0.00 0.00 0.00 0.00 0.00 0.00 0.00 0.01 0.00 0.00 0.00 0.00 0.00 0.00 0.00 0.00 0.00 0.00 0.00 0.00 0.00 0.00 0.00 0.00 0.00 0.00
0.03 0.03 0.04 0.04 0.04 0.03 0.02 0.01 0.01 0.01 0.00 0.00 0.00 0.00 0.00 0.00 0.00 0.00 0.00 0.00 0.00 0.00 0.00 0.01 0.01 0.00 0.00 0.00 0.00 0.01 0.01 0.01 0.01 0.00 0.00 0.00 0.00 0.00 0.00 0.00 0.00 0.00 0.00
0.06 0.06 0.06 0.05 0.04 0.02 0.02 0.01 0.00 0.00 0.00 0.00 0.00 0.00 0.00 0.00 0.00 0.00 0.00 0.00 0.00 0.00 0.00 0.00 0.00 0.00 0.00 0.00 0.01 0.02 0.02 0.01 0.00 0.00 0.00 0.00 0.00 0.00 0.00 0.00 0.00 0.00 0.00
0.08 0.07 0.05 0.03 0.02 0.01 0.01 0.00 0.00 0.00 0.00 0.00 0.00 0.00 0.00 0.00 0.00 0.00 0.00 0.00 0.00 0.00 0.00 0.00 0.00 0.00 0.00 0.00 0.00 0.00 0.00 0.01 0.01 0.00 0.00 0.00 0.00 0.00 0.00 0.00 0.00 0.00 0.00
0.08 0.05 0.03 0.02 0.01 0.00 0.00 0.00 0.00 0.00 0.00 0.00 0.00 0.00 0.00 0.00 0.00 0.01 0.01 0.01 0.01 0.00 0.00 0.00 0.00 0.00 0.00 0.00 0.00 0.00 0.00 0.03 0.03 0.02 0.00 0.01 0.01 0.01 0.02 0.00 0.00 0.00 0.00
MSLP
1016.80 1017.00 1017.14 1017.27 1017.40 1017.57 1017.80 1018.07 1018.37 1018.67 1018.93 1019.14 1019.28 1019.35 1019.39 1019.42 1019.47 1019.55 1019.68 1019.85 1020.03 1020.20 1020.35 1020.44 1020.48 1020.46 1020.39 1020.29 1020.17 1020.04 1019.92 1019.80 1019.68 1019.58 1019.48 1019.37 1019.27 1019.15 1019.02 1018.86 1018.66 1018.44 1018.19
1016.48 1016.71 1016.90 1017.08 1017.29 1017.54 1017.84 1018.19 1018.55 1018.90 1019.20 1019.43 1019.59 1019.68 1019.73 1019.77 1019.81 1019.90 1020.02 1020.18 1020.36 1020.53 1020.67 1020.76 1020.79 1020.75 1020.66 1020.52 1020.36 1020.19 1020.03 1019.87 1019.73 1019.61 1019.50 1019.40 1019.31 1019.21 1019.10 1018.95 1018.78 1018.56 1018.32
1016.04 1016.33 1016.60 1016.88 1017.19 1017.53 1017.92 1018.34 1018.75 1019.14 1019.47 1019.72 1019.89 1019.99 1020.05 1020.08 1020.13 1020.20 1020.32 1020.47 1020.63 1020.79 1020.92 1020.99 1021.01 1020.96 1020.86 1020.70 1020.52 1020.32 1020.12 1019.92 1019.75 1019.61 1019.49 1019.38 1019.30 1019.21 1019.11 1018.98 1018.81 1018.61 1018.38
1015.53 1015.90 1016.26 1016.65 1017.07 1017.52 1017.99 1018.47 1018.94 1019.35 1019.70 1019.96 1020.13 1020.24 1020.30 1020.33 1020.38 1020.45 1020.55 1020.68 1020.82 1020.96 1021.08 1021.15 1021.16 1021.11 1021.00 1020.84 1020.65 1020.43 1020.21 1019.99 1019.79 1019.62 1019.47 1019.35 1019.24 1019.15 1019.05 1018.93 1018.77 1018.58 1018.36
1014.97 1015.42 1015.89 1016.39 1016.91 1017.46 1018.01 1018.55 1019.05 1019.48 1019.83 1020.09 1020.27 1020.39 1020.46 1020.50 1020.56 1020.63 1020.72 1020.84 1020.96 1021.08 1021.18 1021.24 1021.25 1021.21 1021.11 1020.96 1020.77 1020.55 1020.32 1020.08 1019.86 1019.65 1019.46 1019.31 1019.17 1019.05 1018.93 1018.80 1018.64 1018.45 1018.23
1014.42 1014.94 1015.50 1016.09 1016.71 1017.34 1017.95 1018.53 1019.04 1019.48 1019.84 1020.10 1020.30 1020.43 1020.53 1020.60 1020.68 1020.76 1020.86 1020.97 1021.08 1021.18 1021.26 1021.31 1021.32 1021.28 1021.20 1021.06 1020.89 1020.68 1020.45 1020.20 1019.94 1019.70 1019.47 1019.26 1019.08 1018.91 1018.75 1018.59 1018.42 1018.22 1017.99
1013.91 1014.49 1015.11 1015.78 1016.46 1017.14 1017.79 1018.39 1018.91 1019.36 1019.72 1020.00 1020.22 1020.39 1020.53 1020.65 1020.77 1020.88 1020.99 1021.10 1021.20 1021.29 1021.35 1021.38 1021.39 1021.35 1021.28 1021.16 1021.00 1020.81 1020.57 1020.31 1020.04 1019.75 1019.48 1019.21 1018.97 1018.74 1018.53 1018.32 1018.11 1017.89 1017.65
1013.49 1014.09 1014.76 1015.46 1016.18 1016.88 1017.54 1018.15 1018.68 1019.13 1019.50 1019.81 1020.07 1020.30 1020.50 1020.69 1020.87 1021.03 1021.17 1021.29 1021.38 1021.44 1021.48 1021.49 1021.48 1021.43 1021.36 1021.25 1021.10 1020.91 1020.68 1020.40 1020.10 1019.78 1019.46 1019.13 1018.83 1018.53 1018.26 1017.99 1017.74 1017.48 1017.22
1013.18 1013.79 1014.46 1015.17 1015.89 1016.60 1017.26 1017.86 1018.39 1018.84 1019.24 1019.59 1019.91 1020.21 1020.49 1020.76 1021.01 1021.22 1021.39 1021.52 1021.61 1021.65 1021.66 1021.64 1021.60 1021.54 1021.44 1021.32 1021.17 1020.97 1020.73 1020.44 1020.12 1019.76 1019.39 1019.02 1018.65 1018.29 1017.95 1017.64 1017.33 1017.04 1016.76
1012.97 1013.58 1014.24 1014.94 1015.65 1016.34 1016.99 1017.58 1018.10 1018.57 1019.00 1019.40 1019.79 1020.16 1020.53 1020.87 1021.19 1021.45 1021.66 1021.80 1021.88 1021.90 1021.88 1021.83 1021.75 1021.65 1021.53 1021.38 1021.20 1020.99 1020.72 1020.42 1020.07 1019.68 1019.27 1018.86 1018.44 1018.03 1017.64 1017.27 1016.92 1016.59 1016.29
1012.86 1013.47 1014.12 1014.80 1015.48 1016.15 1016.78 1017.36 1017.89 1018.37 1018.84 1019.29 1019.73 1020.18 1020.61 1021.03 1021.39 1021.70 1021.93 1022.08 1022.15 1022.16 1022.11 1022.01 1021.89 1021.75 1021.59 1021.41 1021.20 1020.95 1020.66 1020.32 1019.95 1019.54 1019.10 1018.65 1018.20 1017.76 1017.33 1016.92 1016.53 1016.17 1015.83
1012.81 1013.42 1014.07 1014.74 1015.41 1016.06 1016.67 1017.25 1017.78 1018.29 1018.78 1019.27 1019.76 1020.25 1020.74 1021.19 1021.59 1021.92 1022.16 1022.32 1022.38 1022.37 1022.29 1022.17 1022.02 1021.84 1021.64 1021.41 1021.16 1020.87 1020.54 1020.17 1019.76 1019.33 1018.87 1018.41 1017.94 1017.47 1017.02 1016.58 1016.16 1015.77 1015.41
1012.80 1013.43 1014.09 1014.76 1015.43 1016.07 1016.68 1017.26 1017.80 1018.32 1018.83 1019.34 1019.86 1020.37 1020.87 1021.34 1021.74 1022.07 1022.31 1022.45 1022.51 1022.49 1022.40 1022.26 1022.09 1021.88 1021.65 1021.38 1021.08 1020.74 1020.37 1019.96 1019.53 1019.07 1018.60 1018.13 1017.65 1017.18 1016.71 1016.26 1015.82 1015.39 1015.00
1012.79 1013.47 1014.15 1014.85 1015.53 1016.18 1016.80 1017.38 1017.93 1018.46 1018.98 1019.49 1020.00 1020.51 1020.99 1021.43 1021.81 1022.11 1022.33 1022.46 1022.51 1022.49 1022.40 1022.27 1022.09 1021.87 1021.61 1021.31 1020.97 1020.59 1020.17 1019.72 1019.25 1018.77 1018.29 1017.80 1017.33 1016.85 1016.38 1015.92 1015.46 1015.01 1014.58
1012.78 1013.51 1014.25 1014.98 1015.69 1016.37 1017.00 1017.60 1018.16 1018.68 1019.19 1019.69 1020.17 1020.63 1021.06 1021.45 1021.78 1022.04 1022.22 1022.33 1022.37 1022.36 1022.28 1022.16 1022.00 1021.78 1021.51 1021.19 1020.81 1020.39 1019.92 1019.43 1018.92 1018.41 1017.91 1017.42 1016.94 1016.47 1016.00 1015.53 1015.05 1014.58 1014.12
1012.78 1013.58 1014.37 1015.15 1015.90 1016.61 1017.27 1017.87 1018.43 1018.95 1019.44 1019.90 1020.33 1020.73 1021.09 1021.40 1021.66 1021.86 1021.99 1022.08 1022.11 1022.10 1022.05 1021.95 1021.81 1021.61 1021.34 1021.00 1020.60 1020.13 1019.62 1019.08 1018.53 1017.98 1017.46 1016.95 1016.47 1015.99 1015.52 1015.05 1014.56 1014.07 1013.58
1012.85 1013.70 1014.54 1015.37 1016.15 1016.89 1017.57 1018.18 1018.74 1019.24 1019.69 1020.10 1020.47 1020.79 1021.07 1021.30 1021.47 1021.60 1021.68 1021.73 1021.75 1021.74 1021.70 1021.63 1021.51 1021.33 1021.07 1020.73 1020.30 1019.80 1019.24 1018.65 1018.06 1017.47 1016.91 1016.38 1015.89 1015.40 1014.93 1014.45 1013.96 1013.45 1012.93
1013.03 1013.92 1014.80 1015.65 1016.46 1017.21 1017.89 1018.51 1019.05 1019.52 1019.94 1020.30 1020.60 1020.84 1021.03 1021.17 1021.26 1021.31 1021.33 1021.33 1021.33 1021.31 1021.28 1021.22 1021.11 1020.94 1020.69 1020.34 1019.90 1019.37 1018.77 1018.14 1017.50 1016.87 1016.27 1015.72 1015.20 1014.70 1014.22 1013.73 1013.23 1012.71 1012.18
1013.39 1014.29 1015.17 1016.03 1016.84 1017.58 1018.25 1018.84 1019.35 1019.80 1020.17 1020.47 1020.71 1020.88 1020.99 1021.05 1021.05 1021.02 1020.98 1020.92 1020.87 1020.83 1020.79 1020.72 1020.62 1020.45 1020.19 1019.84 1019.38 1018.83 1018.21 1017.54 1016.86 1016.19 1015.56 1014.97 1014.42 1013.90 1013.40 1012.90 1012.39 1011.86 1011.32
1013.95 1014.83 1015.69 1016.52 1017.29 1017.99 1018.62 1019.18 1019.65 1020.05 1020.37 1020.62 1020.80 1020.91 1020.95 1020.93 1020.86 1020.75 1020.63 1020.52 1020.41 1020.33 1020.25 1020.16 1020.04 1019.85 1019.59 1019.22 1018.75 1018.19 1017.55 1016.86 1016.16 1015.46 1014.80 1014.18 1013.60 1013.05 1012.52 1012.00 1011.47 1010.93 1010.39
1014.72 1015.55 1016.35 1017.11 1017.82 1018.46 1019.02 1019.51 1019.93 1020.27 1020.54 1020.74 1020.87 1020.92 1020.90 1020.81 1020.67 1020.50 1020.31 1020.12 1019.95 1019.80 1019.67 1019.54 1019.38 1019.17 1018.89 1018.52 1018.04 1017.48 1016.84 1016.15 1015.43 1014.73 1014.04 1013.39 1012.78 1012.20 1011.64 1011.08 1010.53 1009.97 1009.41
1015.66 1016.41 1017.12 1017.80 1018.41 1018.95 1019.43 1019.83 1020.17 1020.45 1020.66 1020.81 1020.88 1020.89 1020.82 1020.68 1020.48 1020.24 1019.98 1019.73 1019.48 1019.26 1019.07 1018.88 1018.67 1018.43 1018.13 1017.75 1017.29 1016.73 1016.11 1015.43 1014.73 1014.02 1013.33 1012.66 1012.02 1011.40 1010.80 1010.20 1009.61 1009.01 1008.43
1016.70 1017.35 1017.96 1018.51 1019.01 1019.45 1019.81 1020.12 1020.37 1020.57 1020.71 1020.80 1020.83 1020.79 1020.68 1020.49 1020.25 1019.96 1019.64 1019.32 1019.01 1018.72 1018.45 1018.20 1017.95 1017.68 1017.36 1016.98 1016.53 1016.00 1015.41 1014.76 1014.09 1013.40 1012.71 1012.03 1011.36 1010.70 1010.05 1009.40 1008.75 1008.11 1007.48
1017.74 1018.28 1018.77 1019.21 1019.58 1019.89 1020.14 1020.34 1020.50 1020.61 1020.69 1020.72 1020.69 1020.61 1020.46 1020.24 1019.96 1019.63 1019.27 1018.89 1018.52 1018.18 1017.86 1017.55 1017.26 1016.96 1016.63 1016.25 1015.82 1015.32 1014.77 1014.16 1013.52 1012.86 1012.18 1011.50 1010.81 1010.11 1009.41 1008.70 1007.99 1007.28 1006.60
1018.69 1019.12 1019.50 1019.82 1020.07 1020.26 1020.40 1020.49 1020.54 1020.57 1020.57 1020.54 1020.47 1020.35 1020.17 1019.92 1019.62 1019.26 1018.87 1018.46 1018.05 1017.67 1017.30 1016.96 1016.64 1016.31 1015.97 1015.60 1015.18 1014.72 1014.21 1013.64 1013.04 1012.40 1011.74 1011.05 1010.34 1009.61 1008.86 1008.09 1007.32 1006.54 1005.79
1019.48 1019.82 1020.10 1020.30 1020.44 1020.52 1020.55 1020.55 1020.51 1020.46 1020.39 1020.31 1020.19 1020.03 1019.82 1019.56 1019.24 1018.87 1018.47 1018.04 1017.62 1017.21 1016.82 1016.46 1016.11 1015.77 1015.42 1015.05 1014.65 1014.20 1013.72 1013.18 1012.61 1011.99 1011.34 1010.65 1009.92 1009.16 1008.36 1007.54 1006.70 1005.86 1005.04
Thickness
5677 5675 5672 5670 5668 5666 5663 5661 5658 5656 5654 5652 5650 5648 5646 5644 5642 5640 5639 5637 5635 5632 5630 5627 5625 5624 5623 5622 5622 5621 5621 5621 5621 5621 5621 5621 5621 5621 5622 5622 5623 5624 5625
5675 5672 5669 5666 5664 5661 5658 5655 5652 5650 5647 5645 5642 5640 5638 5636 5633 5631 5629 5627 5625 5623 5621 5618 5616 5615 5614 5614 5614 5613 5613 5613 5613 5612 5612 5612 5613 5613 5613 5613 5614 5615 5615
5672 5669 5666 5663 5660 5657 5653 5649 5645 5642 5639 5637 5634 5632 5629 5627 5625 5622 5620 5617 5615 5613 5611 5609 5607 5606 5605 5605 5604 5605 5605 5604 5603 5603 5603 5603 5603 5603 5603 5604 5604 5605 5606
5670 5666 5662 5659 5655 5651 5648 5643 5639 5634 5630 5628 5625 5623 5621 5618 5616 5613 5610 5608 5606 5604 5601 5599 5597 5596 5595 5594 5594 5594 5595 5594 5594 5593 5593 5593 5593 5593 5593 5593 5594 5594 5595
5667 5662 5658 5654 5650 5646 5641 5638 5632 5628 5622 5619 5617 5615 5612 5610 5607 5604 5601 5599 5596 5594 5592 5590 5588 5586 5585 5584 5584 5583 5583 5584 5583 5583 5582 5582 5582 5582 5582 5582 5583 5583 5584
5663 5659 5653 5649 5644 5639 5634 5630 5625 5620 5615 5611 5610 5606 5603 5600 5598 5595 5592 5589 5587 5585 5582 5580 5578 5576 5574 5573 5573 5572 5572 5572 5572 5571 5571 5571 5571 5571 5571 5571 5571 5572 5573
5659 5654 5648 5643 5639 5634 5629 5624 5618 5612 5606 5603 5600 5596 5593 5591 5588 5585 5583 5580 5577 5575 5572 5570 5567 5565 5563 5562 5561 5560 5560 5560 5560 5560 5560 5560 5559 5559 5559 5559 5559 5560 5561
5655 5650 5644 5638 5634 5628 5622 5618 5613 5605 5600 5595 5592 5587 5584 5581 5578 5576 5572 5569 5567 5564 5561 5558 5556 5553 5552 5551 5549 5549 5548 5547 5547 5548 5548 5548 5547 5547 5547 5546 5547 5548 5549
5650 5645 5640 5635 5629 5624 5618 5613 5608 5602 5593 5587 5584 5581 5577 5575 5568 5566 5562 5559 5556 5553 5550 5547 5544 5542 5541 5539 5538 5537 5536 5535 5535 5535 5535 5535 5534 5534 5533 5534 5534 5535 5535
5643 5639 5634 5629 5623 5618 5612 5607 5602 5596 5590 5582 5576 5572 5568 5564 5559 5557 5553 5549 5546 5543 5539 5536 5534 5531 5529 5528 5526 5524 5523 5522 5522 5521 5521 5520 5519 5519 5519 5519 5519 5520 5519
5634 5631 5627 5622 5616 5611 5605 5599 5594 5588 5583 5576 5570 5563 5558 5552 5548 5545 5542 5537 5534 5532 5529 5525 5522 5519 5517 5514 5512 5510 5509 5508 5507 5506 5505 5504 5503 5503 5503 5503 5502 5502 5501
5622 5620 5617 5614 5608 5602 5597 5591 5586 5580 5574 5569 5562 5557 5551 5545 5539 5533 5528 5523 5519 5518 5516 5513 5509 5506 5503 5499 5496 5494 5493 5491 5490 5489 5489 5488 5487 5487 5486 5485 5484 5483 5483
5612 5610 5607 5603 5599 5594 5588 5582 5576 5570 5565 5559 5553 5546 5541 5536 5530 5524 5517 5511 5507 5506 5505 5502 5497 5493 5489 5485 5481 5479 5477 5475 5473 5473 5472 5472 5471 5470 5468 5467 5466 5465 5464
5606 5602 5597 5593 5588 5583 5577 5572 5566 5559 5554 5548 5543 5537 5531 5525 5520 5514 5507 5500 5494 5491 5490 5489 5485 5480 5475 5471 5466 5464 5461 5458 5456 5455 5455 5454 5453 5451 5449 5448 5447 5445 5443
5593 5589 5586 5581 5577 5572 5566 5561 5554 5549 5543 5537 5532 5526 5521 5515 5509 5504 5497 5489 5482 5476 5476 5475 5470 5467 5461 5457 5452 5449 5446 5442 5441 5439 5437 5436 5434 5432 5430 5428 5426 5423 5420
5582 5577 5574 5569 5565 5560 5555 5549 5543 5537 5532 5527 5521 5515 5509 5504 5498 5492 5485 5478 5471 5464 5460 5460 5455 5451 5447 5442 5438 5434 5430 5427 5424 5421 5419 5417 5415 5412 5409 5406 5403 5399 5395
5570 5567 5563 5558 5554 5548 5543 5537 5532 5526 5521 5516 5510 5504 5498 5493 5486 5480 5473 5466 5459 5452 5448 5448 5441 5436 5430 5426 5423 5418 5414 5411 5407 5402 5399 5396 5393 5389 5385 5381 5377 5373 5369
5558 5555 5551 5547 5542 5536 5531 5526 5521 5515 5510 5504 5499 5492 5487 5481 5475 5468 5461 5454 5448 5441 5435 5433 5428 5421 5415 5410 5406 5402 5398 5393 5387 5382 5377 5374 5369 5364 5360 5356 5352 5350 5347
5546 5543 5539 5535 5530 5525 5519 5514 5509 5504 5498 5492 5486 5480 5475 5469 5462 5456 5449 5442 5436 5430 5423 5417 5415 5408 5402 5395 5391 5386 5381 5374 5366 5359 5355 5350 5346 5341 5337 5335 5333 5332 5331
5534 5531 5527 5523 5518 5513 5508 5503 5497 5491 5485 5479 5473 5468 5462 5456 5450 5444 5437 5430 5423 5416 5409 5402 5399 5394 5387 5380 5373 5368 5366 5357 5348 5338 5334 5331 5327 5323 5319 5318 5319 5319 5320
5522 5519 5515 5510 5506 5501 5496 5491 5485 5479 5473 5466 5460 5455 5450 5445 5440 5433 5427 5419 5411 5403 5395 5388 5384 5378 5371 5363 5355 5349 5346 5342 5333 5322 5321 5316 5311 5310 5307 5306 5306 5308 5310
5509 5506 5502 5497 5493 5490 5485 5480 5474 5467 5461 5454 5447 5442 5437 5432 5426 5420 5414 5407 5399 5390 5382 5374 5368 5360 5353 5344 5338 5331 5325 5323 5322 5310 5305 5306 5300 5302 5300 5298 5298 5300 5303
5496 5492 5488 5485 5481 5477 5474 5469 5464 5456 5449 5441 5435 5429 5424 5418 5411 5404 5398 5392 5383 5374 5366 5358 5351 5341 5334 5327 5320 5315 5308 5304 5303 5297 5293 5301 5296 5296 5295 5292 5291 5292 5295
5483 5480 5476 5472 5469 5466 5463 5459 5453 5444 5436 5430 5424 5417 5410 5404 5397 5392 5387 5378 5368 5358 5349 5341 5333 5326 5317 5311 5304 5300 5296 5294 5293 5286 5282 5288 5292 5291 5291 5286 5283 5285 5288
5471 5468 5465 5462 5459 5456 5452 5447 5441 5432 5425 5418 5411 5404 5398 5391 5386 5381 5374 5364 5355 5345 5335 5326 5318 5311 5304 5297 5291 5287 5282 5280 5283 5282 5274 5275 5282 5283 5286 5284 5280 5279 5280
5461 5458 5455 5452 5448 5444 5441 5436 5431 5422 5415 5407 5399 5391 5385 5379 5373 5366 5358 5349 5341 5332 5323 5313 5303 5295 5289 5283 5278 5273 5269 5266 5268 5271 5269 5265 5267 5264 5277 5283 5275 5271 5272